Wichita Jabara, KS

1:21 AM CDT on March 25, 2017 (GMT -0500)
Col Jabara

Weather History for KAAO - November, 2013

Change the Weather History Date:

Tuesday, November 12, 2013

  Actual Average (KIAB) Record (KIAB)
Temperature  
Mean Temperature 28 °F -  
Max Temperature 36 °F 55 °F 75 °F (1999)
Min Temperature 19 °F 36 °F 16 °F (2014)
Degree Days  
Heating Degree Days 38    
Moisture  
Dew Point 12 °F    
Average Humidity 53    
Maximum Humidity 74    
Minimum Humidity 34    
Precipitation  
Precipitation 0.00 in - - ()
Sea Level Pressure  
Sea Level Pressure 30.80 in    
Wind  
Wind Speed 11 mph (North)    
Max Wind Speed 18 mph    
Max Gust Speed 28 mph    
Visibility 10 miles    
Events      
Averages and records for this station are not official NWS values.
T = Trace of Precipitation, MM = Missing Value Source: NWS Daily Summary

Daily Weather History Graph

Daily Weather History Graph

Search for Another Location

Airport or City:

Trip Planner

Search our weather history database for the weather conditions in past years. The results will help you decide how hot, cold, wet, or windy it might be!

Date:

Astronomy

Nov. 12, 2013 Rise Set
Actual Time 7:06 AM CST 5:19 PM CST
Civil Twilight 6:38 AM CST 5:47 PM CST
Nautical Twilight 6:06 AM CST 6:18 PM CST
Astronomical Twilight 5:35 AM CST 6:49 PM CST
Moon 2:29 PM CST (11/12) 2:02 AM CST (11/12)
Length of Visible Light 11h 09m
Length of Day
10h 13m
Waxing Gibbous, 76% of the Moon is Illuminated
Nov 12
Waxing Gibbous
Nov 17
Full
Nov 25
Last Quarter
Dec 2
New
Dec 9
First Quarter

Hourly Weather History & Observations

Time (CST) Temp. Windchill Dew Point Humidity Pressure Visibility Wind Dir Wind Speed Gust Speed Precip Events Conditions
12:54 AM 28.0 °F 15.3 °F 14.0 °F 56% 30.69 in 10.0 mi North 18.4 mph 27.6 mph N/A   Clear
1:54 AM 27.0 °F 15.2 °F 14.0 °F 58% 30.71 in 10.0 mi North 15.0 mph - N/A   Clear
3:54 AM 26.1 °F 14.5 °F 12.9 °F 58% 30.77 in 10.0 mi North 13.8 mph 23.0 mph N/A   Clear
4:54 AM 25.0 °F 12.6 °F 12.9 °F 60% 30.81 in 10.0 mi North 15.0 mph - N/A   Clear
5:54 AM 21.9 °F 9.2 °F 12.0 °F 66% 30.83 in 10.0 mi NNE 13.8 mph 19.6 mph N/A   Clear
6:54 AM 19.9 °F 9.3 °F 12.9 °F 74% 30.85 in 10.0 mi North 9.2 mph - N/A   Clear
7:54 AM 21.0 °F 8.1 °F 12.9 °F 71% 30.88 in 10.0 mi North 13.8 mph 19.6 mph N/A   Clear
8:54 AM 23.0 °F 9.6 °F 12.9 °F 65% 30.90 in 10.0 mi North 16.1 mph - N/A   Clear
9:54 AM 26.1 °F 15.6 °F 12.0 °F 55% 30.92 in 10.0 mi NNE 11.5 mph - N/A   Clear
10:54 AM 28.0 °F 17.0 °F 10.9 °F 49% 30.92 in 10.0 mi North 13.8 mph 17.3 mph N/A   Clear
11:54 AM 30.0 °F 22.4 °F 10.0 °F 43% 30.89 in 10.0 mi NNE 8.1 mph - N/A   Clear
12:54 PM 33.1 °F 26.9 °F 9.0 °F 37% 30.85 in 10.0 mi North 6.9 mph - N/A   Clear
1:54 PM 34.0 °F 26.6 °F 10.0 °F 37% 30.82 in 10.0 mi North 9.2 mph - N/A   Clear
2:54 PM 36.0 °F 30.3 °F 10.0 °F 34% 30.79 in 10.0 mi NNE 6.9 mph - N/A   Clear
3:54 PM 36.0 °F 31.1 °F 10.0 °F 34% 30.78 in 10.0 mi NNE 5.8 mph - N/A   Clear
4:54 PM 35.1 °F - 10.9 °F 37% 30.77 in 10.0 mi Calm Calm - N/A   Clear
5:54 PM 30.9 °F - 10.0 °F 42% 30.76 in 10.0 mi Calm Calm - N/A   Clear
6:54 PM 30.0 °F - 10.0 °F 43% 30.76 in 10.0 mi Calm Calm - N/A   Clear
7:54 PM 28.0 °F 24.2 °F 12.9 °F 53% 30.74 in 10.0 mi South 3.5 mph - N/A   Clear
8:54 PM 26.1 °F 21.9 °F 14.0 °F 60% 30.75 in 10.0 mi SW 3.5 mph - N/A   Clear
9:54 PM 24.1 °F 19.7 °F 14.0 °F 65% 30.76 in 10.0 mi South 3.5 mph - N/A   Clear
10:54 PM 26.1 °F 21.9 °F 15.1 °F 63% 30.74 in 10.0 mi South 3.5 mph - N/A   Clear
11:54 PM 25.0 °F 19.3 °F 14.0 °F 63% 30.72 in 10.0 mi SSW 4.6 mph - N/A   Clear